Tracking 27112 objects as of 26-Mar-2023
HD Live streaming from Space Station
objects crossing your sky now

STARLINK-3555

Track STARLINK-3555 now!
10-day predictions
STARLINK-3555 is classified as:


NORAD ID: 51863
Int'l Code: 2022-022M
Perigee: 545.8 km
Apogee: 547.8 km
Inclination: 53.2 °
Period: 95.4 minutes
Semi major axis: 6917 km
RCS: Unknown
Launch date: March 3, 2022
Source: United States (US)
Launch site: AIR FORCE EASTERN TEST RANGE (AFETR)
Your satellite tracking list
Your tracking list is empty




NASA's NSSDC Master Catalog

Two Line Element Set (TLE):
1 51863U 22022M   23085.52316987  .00031808  00000-0  20067-2 0  9997
2 51863  53.2149 173.6877 0001440  99.8035 260.3119 15.08856487 60191
Source of the keplerian elements: AFSPC